Regional Weather Roundup
Issued by NWS

Home | Current Version | Previous Version | Graphics & Text | Print | Product List | Glossary On
Versions: 1 2 3 4 5 6 7 8 9 10 11 12 13 14 15 16 17 18 19 20 21 22 23 24 25 26 27 28 29 30 31 32 33 34 35 36 37 38 39 40 41 42 43 44 45 46 47 48 49 50
000
ASUS43 KOAX 240410
RWRNE

WEATHER ROUNDUP FOR NEBRASKA
NATIONAL WEATHER SERVICE OMAHA NE
1100 PM CDT SAT SEP 23 2017

NOTES: SATELLITE DATA IS BEING USED TO AUGMENT CLOUD COVER ABOVE
       12000 FEET.
       "FAIR" INDICATES FEW OR NO CLOUDS BELOW 12,000 FEET WITH NO
       SIGNIFICANT WEATHER AND/OR OBSTRUCTIONS TO VISIBILITY.


NEZ001>004-019>022-054>056-240500-
NEBRASKA PANHANDLE

CITY           SKY/WX    TMP DP  RH WIND       PRES   REMARKS
SCOTTSBLUFF    LGT RAIN  46  42  86 N7        29.98F
ALLIANCE       CLOUDY    44  43  96 N9        29.97F
CHADRON        CLOUDY    46  44  93 NE9       29.98F
GORDON         RAIN      46  45  94 NW8       29.98R
KIMBALL        LGT RAIN  44  44 100 NW3       30.00R
SIDNEY         LGT RAIN  45  44  97 N13       29.96F
$$

NEZ057>060-069>072-079>082-240500-
SOUTHWEST NEBRASKA

CITY           SKY/WX    TMP DP  RH WIND       PRES   REMARKS
NORTH PLATTE   RAIN      53  52  96 E8        29.91F
IMPERIAL       RAIN      53  51  93 NE8       29.90R
LEXINGTON      CLOUDY    58  56  94 NW6       29.89F
MCCOOK         LGT RAIN  57  57 100 NE9       29.88F
OGALLALA       RAIN      52  50  93 N6        29.93R
$$

NEZ005>010-023>029-035>040-094-240500-
NORTH CENTRAL NEBRASKA

CITY           SKY/WX    TMP DP  RH WIND       PRES   REMARKS
VALENTINE      RAIN      51  49  92 NW5       29.96R
AINSWORTH      RAIN      50  50 100 NW8       29.92F
BROKEN BOW     CLOUDY    56  55  97 NW8       29.90R
O`NEILL        LGT RAIN  55  55 100 NE6       29.90F
ORD            MOCLDY    57  54  89 E5        29.87F
THEDFORD       LGT RAIN  50  49  97 N8        29.93F
$$

NEZ041-046>049-061>064-073>077-083>087-240500-
SOUTH CENTRAL NEBRASKA

CITY           SKY/WX    TMP DP  RH WIND       PRES   REMARKS
GRAND ISLAND   MOCLDY    60  58  92 E6        29.87F
AURORA         PTCLDY    75  60  61 S13       29.87S
HASTINGS       PTCLDY    77  59  53 S12G20    29.87F
HEBRON         PTCLDY    77  61  57 SE8       29.88S
HOLDREGE       MOCLDY    60  59  96 E6        29.86F
KEARNEY        PTCLDY    59  58  96 E8        29.87F
YORK           CLOUDY    77  63  61 S13       29.88S
$$

NEZ011>018-030>034-042>045-240500-
NORTHEAST NEBRASKA

CITY           SKY/WX    TMP DP  RH WIND       PRES   REMARKS
NORFOLK        MOCLDY    59  58  96 N6        29.90S
ALBION         CLOUDY    59  56  89 E3        29.89F
BLAIR          PTCLDY    79  65  63 S10       29.91S
COLUMBUS       PTCLDY    77  64  64 SE10      29.88S
FREMONT        CLOUDY    79  63  57 SE13G18   29.89S
TEKAMAH        CLOUDY    74  64  71 SE9       29.88S
WAYNE          CLOUDY    60  58  91 N7        29.91S
$$

NEZ050>053-065>068-078-088>093-240500-
SOUTHEAST NEBRASKA

CITY           SKY/WX    TMP DP  RH WIND       PRES   REMARKS
LINCOLN        PTCLDY    78  63  59 S14       29.89F
OMAHA EPPLEY   PTCLDY    80  65  59 S14       29.90F
BEATRICE       CLOUDY    79  64  60 SE10      29.91S
FALLS CITY     PTCLDY    73  66  78 SE6       29.92F
NEBRASKA CITY  PTCLDY    76  67  71 S10       29.93F
PLATTSMOUTH    PTCLDY    78  67  69 SE9       29.92F
$$

NEZ044-045-051>053-067-240500-
OMAHA AREA

CITY           SKY/WX    TMP DP  RH WIND       PRES   REMARKS
OMAHA EPPLEY   PTCLDY    80  65  59 S14       29.90F
BLAIR          PTCLDY    79  65  63 S10       29.91S
FREMONT        CLOUDY    79  63  57 SE13G18   29.89S
MILLARD        PTCLDY    78  67  68 SE8       29.90F
OFFUTT AFB     CLOUDY    73  65  75 SE10      29.90F
PLATTSMOUTH    PTCLDY    78  67  69 SE9       29.92F
WAHOO          FAIR      78  62  59 SE14      29.89S
$$




USA.gov is the U.S. government's official web portal to all federal, state and local government web resources and services.